| time (UTC) | temp F | wind direction | speed knots | gust knots | rain 1hr in | rain 24hr in | rain mn in | humidity % | barometer mb |
| 20260510075128 | 64 | 0 | 0.0 | 3.5 | 0.00 | 0.00 | 0.00 | 7 | 1030.1 |
| 20260510074128 | 64 | 141 | 0.9 | 3.5 | 0.00 | 0.00 | 0.00 | 7 | 1029.9 |
| 20260510073128 | 64 | 195 | 4.3 | 6.1 | 0.00 | 0.00 | 0.00 | 7 | 1029.9 |
| 20260510072128 | 64 | 209 | 2.6 | 7.0 | 0.00 | 0.00 | 0.00 | 7 | 1029.8 |
| 20260510071128 | 65 | 0 | 0.0 | 7.8 | 0.00 | 0.00 | 0.00 | 7 | 1029.6 |
| 20260510070128 | 65 | 175 | 2.6 | 4.3 | 0.00 | 0.00 | 0.00 | 7 | 1029.5 |
| 20260510065128 | 65 | 171 | 1.7 | 3.5 | 0.00 | 0.00 | 0.00 | 7 | 1029.3 |
| 20260510064128 | 65 | 166 | 0.9 | 3.5 | 0.00 | 0.00 | 0.00 | 7 | 1029.3 |
| 20260510063128 | 66 | 164 | 3.5 | 8.7 | 0.00 | 0.00 | 0.00 | 7 | 1029.2 |
| 20260510062128 | 66 | 185 | 3.5 | 7.8 | 0.00 | 0.00 | 0.00 | 7 | 1029.1 |
| 20260510061128 | 66 | 167 | 7.0 | 10.4 | 0.00 | 0.00 | 0.00 | 7 | 1028.9 |
| 20260510060128 | 66 | 175 | 2.6 | 8.7 | 0.00 | 0.00 | 0.00 | 7 | 1028.7 |
| 20260510055128 | 66 | 162 | 2.6 | 9.6 | 0.00 | 0.00 | 0.00 | 7 | 1028.7 |
| 20260510054128 | 67 | 160 | 1.7 | 7.0 | 0.00 | 0.00 | 0.00 | 7 | 1028.5 |
| 20260510053202 | 67 | 158 | 1.7 | 7.8 | 0.00 | 0.00 | 0.00 | 7 | 1028.4 |
| 20260510053128 | 67 | 158 | 1.7 | 7.8 | 0.00 | 0.00 | 0.00 | 7 | 1028.4 |
| 20260510052128 | 67 | 185 | 2.6 | 6.1 | 0.00 | 0.00 | 0.00 | 7 | 1028.3 |
| 20260510051128 | 68 | 175 | 1.7 | 3.5 | 0.00 | 0.00 | 0.00 | 6 | 1028.1 |
| 20260510050128 | 68 | 210 | 1.7 | 2.6 | 0.00 | 0.00 | 0.00 | 6 | 1028.1 |
| 20260510045128 | 68 | 160 | 4.3 | 6.1 | 0.00 | 0.00 | 0.00 | 6 | 1028.2 |
| 20260510044128 | 68 | 201 | 7.8 | 10.4 | 0.00 | 0.00 | 0.00 | 6 | 1028.0 |
| 20260510043128 | 68 | 145 | 5.2 | 5.2 | 0.00 | 0.00 | 0.00 | 6 | 1028.1 |
| 20260510042128 | 68 | 144 | 3.5 | 7.8 | 0.00 | 0.00 | 0.00 | 6 | 1028.1 |
| 20260510041128 | 69 | 218 | 1.7 | 7.8 | 0.00 | 0.00 | 0.00 | 6 | 1028.2 |
| 20260510040128 | 70 | 216 | 2.6 | 8.7 | 0.00 | 0.00 | 0.00 | 6 | 1028.2 |
| 20260510035128 | 69 | 161 | 2.6 | 9.6 | 0.00 | 0.00 | 0.00 | 6 | 1028.2 |
| 20260510034128 | 69 | 87 | 5.2 | 7.8 | 0.00 | 0.00 | 0.00 | 6 | 1028.1 |
| 20260510033128 | 69 | 136 | 1.7 | 7.8 | 0.00 | 0.00 | 0.00 | 6 | 1028.0 |
| 20260510032128 | 69 | 74 | 6.1 | 8.7 | 0.00 | 0.00 | 0.00 | 6 | 1028.0 |
| 20260510031128 | 68 | 118 | 4.3 | 5.2 | 0.00 | 0.00 | 0.00 | 6 | 1028.0 |
| 20260510030128 | 70 | 189 | 0.9 | 4.3 | 0.00 | 0.00 | 0.00 | 6 | 1028.0 |
| 20260510025128 | 70 | 226 | 0.9 | 7.0 | 0.00 | 0.00 | 0.00 | 6 | 1028.0 |
| 20260510024128 | 70 | 150 | 0.9 | 2.6 | 0.00 | 0.00 | 0.00 | 6 | 1028.1 |
| 20260510023128 | 70 | 0 | 0.0 | 3.5 | 0.00 | 0.00 | 0.00 | 6 | 1028.1 |
| 20260510022127 | 70 | 0 | 0.0 | 2.6 | 0.00 | 0.00 | 0.00 | 6 | 1028.2 |
| 20260510021127 | 70 | 193 | 1.7 | 1.7 | 0.00 | 0.00 | 0.00 | 6 | 1028.3 |
| 20260510020127 | 69 | 245 | 1.7 | 4.3 | 0.00 | 0.00 | 0.00 | 6 | 1028.5 |
| 20260510015127 | 69 | 162 | 3.5 | 4.3 | 0.00 | 0.00 | 0.00 | 6 | 1028.6 |
| 20260510014126 | 69 | 122 | 1.7 | 5.2 | 0.00 | 0.00 | 0.00 | 6 | 1028.7 |
| 20260510013126 | 69 | 249 | 1.7 | 4.3 | 0.00 | 0.00 | 0.00 | 6 | 1028.7 |
| 20260510012126 | 68 | 220 | 4.3 | 4.3 | 0.00 | 0.00 | 0.00 | 6 | 1028.9 |
| 20260510011126 | 68 | 197 | 1.7 | 4.3 | 0.00 | 0.00 | 0.00 | 6 | 1029.1 |
| 20260510010126 | 67 | 180 | 1.7 | 3.5 | 0.00 | 0.00 | 0.00 | 6 | 1029.3 |
| 20260510005126 | 67 | 252 | 3.5 | 7.0 | 0.00 | 0.00 | 0.00 | 6 | 1029.3 |
| 20260510004126 | 66 | 235 | 0.9 | 7.8 | 0.00 | 0.00 | 0.00 | 6 | 1029.3 |
| 20260510003126 | 66 | 220 | 2.6 | 4.3 | 0.00 | 0.00 | 0.00 | 6 | 1029.4 |
| 20260510002126 | 65 | 242 | 1.7 | 5.2 | 0.00 | 0.00 | 0.00 | 6 | 1029.4 |
| 20260510001126 | 64 | 237 | 2.6 | 6.1 | 0.00 | 0.00 | 0.00 | 6 | 1029.3 |
| 20260510000126 | 64 | 274 | 5.2 | 6.1 | 0.00 | 0.00 | 0.00 | 6 | 1029.1 |
| 20260509235126 | 63 | 247 | 3.5 | 7.0 | 0.00 | 0.00 | 0.00 | 7 | 1029.0 |
| 20260509234126 | 62 | 241 | 7.0 | 8.7 | 0.00 | 0.00 | 0.00 | 7 | 1029.0 |
| 20260509233126 | 61 | 216 | 7.8 | 8.7 | 0.00 | 0.00 | 0.00 | 7 | 1028.8 |
| 20260509232126 | 61 | 232 | 3.5 | 8.7 | 0.00 | 0.00 | 0.00 | 7 | 1028.9 |
| 20260509231126 | 60 | 253 | 7.8 | 8.7 | 0.00 | 0.00 | 0.00 | 7 | 1028.8 |
| 20260509230126 | 60 | 247 | 3.5 | 8.7 | 0.00 | 0.00 | 0.00 | 7 | 1028.8 |
| 20260509225126 | 59 | 240 | 8.7 | 11.3 | 0.00 | 0.00 | 0.00 | 7 | 1028.7 |
| 20260509224126 | 59 | 245 | 5.2 | 9.6 | 0.00 | 0.00 | 0.00 | 7 | 1028.7 |
| 20260509223126 | 58 | 243 | 9.6 | 12.2 | 0.00 | 0.00 | 0.00 | 7 | 1028.8 |
| 20260509222126 | 58 | 221 | 4.3 | 8.7 | 0.00 | 0.00 | 0.00 | 7 | 1028.7 |
| 20260509221126 | 57 | 242 | 7.0 | 7.0 | 0.00 | 0.00 | 0.00 | 7 | 1028.7 |
| 20260509220126 | 57 | 257 | 7.8 | 8.7 | 0.00 | 0.00 | 0.00 | 7 | 1028.6 |
| 20260509215126 | 56 | 231 | 4.3 | 7.8 | 0.00 | 0.00 | 0.00 | 7 | 1028.5 |
| 20260509214126 | 56 | 246 | 5.2 | 11.3 | 0.00 | 0.00 | 0.00 | 7 | 1028.4 |
| 20260509213126 | 55 | 253 | 4.3 | 7.8 | 0.00 | 0.00 | 0.00 | 7 | 1028.3 |
| 20260509212126 | 55 | 247 | 4.3 | 8.7 | 0.00 | 0.00 | 0.00 | 7 | 1028.2 |
| 20260509211126 | 55 | 254 | 7.8 | 7.8 | 0.00 | 0.00 | 0.00 | 7 | 1028.0 |
| 20260509210126 | 54 | 247 | 7.8 | 8.7 | 0.00 | 0.00 | 0.00 | 8 | 1027.8 |
| 20260509205126 | 54 | 225 | 5.2 | 9.6 | 0.00 | 0.00 | 0.00 | 8 | 1027.6 |
| 20260509204126 | 54 | 250 | 7.8 | 9.6 | 0.00 | 0.00 | 0.00 | 7 | 1027.5 |
| 20260509203126 | 55 | 261 | 6.1 | 10.4 | 0.00 | 0.00 | 0.00 | 7 | 1027.4 |
| 20260509202126 | 55 | 276 | 2.6 | 6.1 | 0.00 | 0.00 | 0.00 | 7 | 1027.3 |
| 20260509201126 | 55 | 268 | 3.5 | 8.7 | 0.00 | 0.00 | 0.00 | 7 | 1027.1 |
| 20260509200126 | 55 | 257 | 4.3 | 6.1 | 0.00 | 0.00 | 0.00 | 7 | 1027.1 |
| 20260509195126 | 55 | 254 | 1.7 | 6.1 | 0.00 | 0.00 | 0.00 | 7 | 1027.0 |
| 20260509194126 | 56 | 268 | 4.3 | 7.8 | 0.00 | 0.00 | 0.00 | 7 | 1026.8 |
| 20260509193126 | 56 | 245 | 1.7 | 7.0 | 0.00 | 0.00 | 0.00 | 7 | 1026.6 |
| 20260509192126 | 56 | 270 | 2.6 | 5.2 | 0.00 | 0.00 | 0.00 | 7 | 1026.5 |
| 20260509191126 | 56 | 249 | 2.6 | 8.7 | 0.00 | 0.00 | 0.00 | 7 | 1026.5 |
| 20260509190126 | 56 | 285 | 2.6 | 7.8 | 0.00 | 0.00 | 0.00 | 7 | 1026.4 |
| 20260509185126 | 56 | 278 | 3.5 | 7.8 | 0.00 | 0.00 | 0.00 | 7 | 1026.3 |
| 20260509184126 | 56 | 271 | 5.2 | 8.7 | 0.00 | 0.00 | 0.00 | 7 | 1026.3 |
| 20260509183126 | 55 | 234 | 5.2 | 7.8 | 0.00 | 0.00 | 0.00 | 7 | 1026.1 |
| 20260509182126 | 56 | 259 | 2.6 | 7.8 | 0.00 | 0.00 | 0.00 | 7 | 1026.2 |
| 20260509181126 | 56 | 241 | 4.3 | 6.1 | 0.00 | 0.00 | 0.00 | 7 | 1026.2 |
| 20260509180126 | 56 | 250 | 3.5 | 6.1 | 0.00 | 0.00 | 0.00 | 7 | 1026.1 |
| 20260509175126 | 56 | 254 | 7.0 | 7.8 | 0.00 | 0.00 | 0.00 | 7 | 1026.2 |
| 20260509174126 | 56 | 253 | 6.1 | 7.0 | 0.00 | 0.00 | 0.00 | 7 | 1026.2 |
| 20260509173126 | 56 | 254 | 1.7 | 7.0 | 0.00 | 0.00 | 0.00 | 7 | 1026.0 |
| 20260509172126 | 56 | 236 | 8.7 | 8.7 | 0.00 | 0.00 | 0.00 | 7 | 1026.0 |
| 20260509171126 | 57 | 254 | 2.6 | 7.8 | 0.00 | 0.00 | 0.00 | 7 | 1026.1 |
| 20260509170126 | 57 | 261 | 3.5 | 9.6 | 0.00 | 0.00 | 0.00 | 7 | 1026.1 |
| 20260509165126 | 57 | 231 | 2.6 | 7.0 | 0.00 | 0.00 | 0.00 | 7 | 1026.1 |
| 20260509164126 | 57 | 243 | 3.5 | 8.7 | 0.00 | 0.00 | 0.00 | 7 | 1026.0 |
| 20260509163126 | 58 | 246 | 3.5 | 7.8 | 0.00 | 0.00 | 0.00 | 7 | 1025.9 |
| 20260509162126 | 58 | 216 | 6.1 | 8.7 | 0.00 | 0.00 | 0.00 | 7 | 1026.0 |
| 20260509161126 | 58 | 225 | 6.1 | 9.6 | 0.00 | 0.00 | 0.00 | 7 | 1026.0 |
| 20260509160126 | 58 | 224 | 5.2 | 10.4 | 0.00 | 0.00 | 0.00 | 7 | 1026.0 |
| 20260509155126 | 58 | 263 | 6.1 | 7.8 | 0.00 | 0.00 | 0.00 | 7 | 1026.1 |
| 20260509154126 | 58 | 233 | 4.3 | 9.6 | 0.00 | 0.00 | 0.00 | 7 | 1026.1 |
| 20260509153126 | 58 | 243 | 1.7 | 10.4 | 0.00 | 0.00 | 0.00 | 7 | 1026.1 |
| 20260509152126 | 58 | 246 | 4.3 | 8.7 | 0.00 | 0.00 | 0.00 | 7 | 1026.2 |
| 20260509151126 | 58 | 239 | 7.8 | 10.4 | 0.00 | 0.00 | 0.00 | 7 | 1026.2 |
| 20260509150126 | 58 | 264 | 10.4 | 12.2 | 0.00 | 0.00 | 0.00 | 7 | 1026.2 |
| 20260509145126 | 58 | 234 | 3.5 | 8.7 | 0.00 | 0.00 | 0.00 | 7 | 1026.3 |
| 20260509144125 | 58 | 258 | 6.1 | 10.4 | 0.00 | 0.00 | 0.00 | 7 | 1026.2 |
| 20260509143125 | 58 | 247 | 7.0 | 8.7 | 0.00 | 0.00 | 0.00 | 7 | 1026.2 |
| 20260509142244 | 58 | 215 | 5.2 | 8.7 | 0.00 | 0.00 | 0.00 | 7 | 1026.2 |
| 20260509142125 | 58 | 215 | 5.2 | 8.7 | 0.00 | 0.00 | 0.00 | 7 | 1026.2 |
| 20260509141125 | 57 | 220 | 7.8 | 10.4 | 0.00 | 0.00 | 0.00 | 7 | 1026.1 |
| 20260509140125 | 58 | 258 | 6.1 | 7.0 | 0.00 | 0.00 | 0.00 | 7 | 1026.1 |
| 20260509135125 | 58 | 229 | 3.5 | 8.7 | 0.00 | 0.00 | 0.00 | 7 | 1026.2 |
| 20260509134125 | 58 | 248 | 7.8 | 8.7 | 0.00 | 0.00 | 0.00 | 7 | 1026.3 |
| 20260509133125 | 58 | 252 | 4.3 | 8.7 | 0.00 | 0.00 | 0.00 | 7 | 1026.3 |
| 20260509132125 | 58 | 223 | 3.5 | 10.4 | 0.00 | 0.00 | 0.00 | 7 | 1026.3 |
| 20260509131125 | 59 | 251 | 8.7 | 9.6 | 0.00 | 0.00 | 0.00 | 7 | 1026.3 |
| 20260509130125 | 59 | 276 | 3.5 | 8.7 | 0.00 | 0.00 | 0.00 | 7 | 1026.4 |
| 20260509125125 | 59 | 260 | 4.3 | 9.6 | 0.00 | 0.00 | 0.00 | 7 | 1026.4 |
| 20260509124125 | 59 | 251 | 2.6 | 7.8 | 0.00 | 0.00 | 0.00 | 7 | 1026.5 |
| 20260509123125 | 60 | 237 | 3.5 | 9.6 | 0.00 | 0.00 | 0.00 | 7 | 1026.4 |
| 20260509122125 | 60 | 234 | 3.5 | 6.1 | 0.00 | 0.00 | 0.00 | 7 | 1026.5 |
| 20260509121124 | 60 | 247 | 3.5 | 3.5 | 0.00 | 0.00 | 0.00 | 7 | 1026.5 |
| 20260509120124 | 60 | 257 | 0.9 | 3.5 | 0.00 | 0.00 | 0.00 | 7 | 1026.6 |
| 20260509115124 | 60 | 239 | 3.5 | 4.3 | 0.00 | 0.00 | 0.00 | 7 | 1026.6 |
| 20260509114124 | 60 | 254 | 2.6 | 3.5 | 0.00 | 0.00 | 0.00 | 7 | 1026.5 |
| 20260509113122 | 61 | 237 | 1.7 | 3.5 | 0.00 | 0.00 | 0.00 | 7 | 1026.5 |
| 20260509112122 | 60 | 241 | 1.7 | 3.5 | 0.00 | 0.00 | 0.00 | 7 | 1026.5 |
| 20260509111122 | 60 | 248 | 0.9 | 4.3 | 0.00 | 0.00 | 0.00 | 7 | 1026.5 |
| 20260509110122 | 60 | 244 | 2.6 | 3.5 | 0.00 | 0.00 | 0.00 | 7 | 1026.5 |
| 20260509105122 | 60 | 316 | 0.9 | 2.6 | 0.00 | 0.00 | 0.00 | 7 | 1026.4 |
| 20260509104122 | 60 | 316 | 2.6 | 3.5 | 0.00 | 0.00 | 0.00 | 7 | 1026.4 |
| 20260509103122 | 60 | 70 | 2.6 | 2.6 | 0.00 | 0.00 | 0.00 | 7 | 1026.3 |
| 20260509102122 | 60 | 0 | 0.0 | 0.0 | 0.00 | 0.00 | 0.00 | 7 | 1026.2 |
| 20260509101122 | 60 | 0 | 0.0 | 0.0 | 0.00 | 0.00 | 0.00 | 7 | 1026.1 |
| 20260509100122 | 60 | 0 | 0.0 | 0.0 | 0.00 | 0.00 | 0.00 | 7 | 1026.0 |
| 20260509095121 | 61 | 0 | 0.0 | 0.0 | 0.00 | 0.00 | 0.00 | 7 | 1025.9 |
| 20260509094121 | 61 | 0 | 0.0 | 0.0 | 0.00 | 0.00 | 0.00 | 7 | 1025.9 |
| 20260509093120 | 60 | 0 | 0.0 | 0.0 | 0.00 | 0.00 | 0.00 | 7 | 1025.9 |
| 20260509092120 | 60 | 0 | 0.0 | 0.0 | 0.00 | 0.00 | 0.00 | 7 | 1025.9 |
| 20260509091120 | 61 | 0 | 0.0 | 0.0 | 0.00 | 0.00 | 0.00 | 7 | 1025.7 |
| 20260509090120 | 61 | 0 | 0.0 | 0.0 | 0.00 | 0.00 | 0.00 | 7 | 1025.6 |
| 20260509085120 | 61 | 0 | 0.0 | 0.0 | 0.00 | 0.00 | 0.00 | 7 | 1025.4 |
| 20260509084120 | 60 | 0 | 0.0 | 0.0 | 0.00 | 0.00 | 0.00 | 7 | 1025.3 |
| 20260509083120 | 61 | 0 | 0.0 | 0.0 | 0.00 | 0.00 | 0.00 | 7 | 1025.2 |
| 20260509082120 | 60 | 0 | 0.0 | 0.0 | 0.00 | 0.00 | 0.00 | 7 | 1025.1 |
| 20260509081120 | 61 | 0 | 0.0 | 0.0 | 0.00 | 0.00 | 0.00 | 7 | 1025.0 |
| 20260509080120 | 61 | 0 | 0.0 | 0.0 | 0.00 | 0.00 | 0.00 | 7 | 1024.8 |